Regional Weather Roundup
Issued by NWS Upton, NY

Current Version | Previous Version | Text Only | Print | Product List | Glossary Off
Versions: 1 2 3 4 5 6 7 8 9 10 11 12 13 14 15 16 17 18 19 20 21 22 23 24 25 26 27 28 29 30 31 32 33 34 35 36 37 38 39 40 41 42 43 44 45 46 47 48 49 50
000 ASUS41 KOKX 291707 RWROKX REGIONAL WEATHER ROUNDUP NATIONAL WEATHER SERVICE NEW YORK NY 100 PM EDT SUN MAR 29 2015 NOTE: "FAIR" INDICATES FEW OR NO CLOUDS BELOW 12,000 FEET WITH NO SIGNIFICANT WEATHER AND/OR OBSTRUCTIONS TO VISIBILITY. NYZ071-072-176-178-NJZ106-104-291800- NEW YORK CITY METRO AREA CITY SKY/WX TMP DP RH WIND PRES REMARKS CENTRAL PARK SUNNY 39 0 19 NW9G18 30.28F WCI 33 LAGUARDIA APRT SUNNY 38 2 22 NW5 30.26F WCI 34 KENNEDY INTL SUNNY 40 -3 16 N13G22 30.28S WCI 32 NEWARK/LIBERTY SUNNY 41 1 18 NW13G18 30.27F BRNX BOT. GARD N/A N/A N/A N/A N9 30.27R TETERBORO SUNNY 39 8 27 W6 30.25F WCI 35 $$ NYZ177-179-078>081-291800- LONG ISLAND NEW YORK CITY SKY/WX TMP DP RH WIND PRES REMARKS FARMINGDALE SUNNY 38 6 26 NW8 30.25F WCI 32 ISLIP SUNNY 37 8 30 N12 30.23F WCI 29 SHIRLEY SUNNY 36 11 35 NW13 30.24F WCI 27 WESTHAMPTON SUNNY 35 13 40 N13 30.24F WCI 26 MONTAUK POINT N/A 36 14 40 N6 30.22F WCI 31 $$ NYZ052-065-067-291800- HUDSON VALLEY CITY SKY/WX TMP DP RH WIND PRES REMARKS WHITE PLAINS SUNNY 38 6 26 NW8G18 30.22F WCI 32 NEWBURGH SUNNY 37 7 28 NW8 30.24F WCI 31 MONTGOMERY SUNNY 40 4 22 MISG 30.22F POUGHKEEPSIE SUNNY 39 5 24 N6 30.24F WCI 35 ALBANY MOSUNNY 36 6 28 N12 30.24F WCI 28 $$ NJZ001-105-106-008-010-013-015-019>022-104-291800- NEW JERSEY CITY SKY/WX TMP DP RH WIND PRES REMARKS NEWARK/LIBERTY SUNNY 41 1 18 NW13G18 30.27F TETERBORO SUNNY 39 8 27 W6 30.25F WCI 35 CALDWELL SUNNY 38 1 21 VRB5 30.26F WCI 34 MORRISTOWN SUNNY 37 3 23 N6G14 30.27F WCI 33 SOMERVILLE SUNNY 40 3 21 NW8 30.25F WCI 34 SUSSEX SUNNY 38 9 30 N10 30.25F WCI 31 ANDOVER N/A 38 6 26 VRB6 30.25F WCI 33 TRENTON SUNNY 38 7 27 N5 30.28F WCI 34 MILLVILLE SUNNY 39 8 27 N9G21 30.31F WCI 33 ATLANTIC CITY SUNNY 41 6 23 NW9 30.29F WRIGHTSTOWN SUNNY 38 6 25 VRB7G16 30.27F WCI 33 TOMS RIVER SUNNY 37 3 23 N9 30.28F WCI 31 BELMAR SUNNY 39 7 26 N13 30.26F WCI 32 $$ PAZ047>061-062-071-291800- EASTERN PENNSYLVANIA CITY SKY/WX TMP DP RH WIND PRES REMARKS PHILADELPHIA SUNNY 40 6 24 N14 30.32F WCI 32 ALLENTOWN LGT RAIN 39 8 27 W6 30.28F WCI 35 SCRANTON SUNNY 36 6 28 VRB5 30.24F WCI 32 $$ CTZ002-004>006-009-010-012-RIZ004-006-007-MAZ004-011-015-291800- SOUTHERN NEW ENGLAND IN CT CITY SKY/WX TMP DP RH WIND PRES REMARKS BRADLEY INTL SUNNY 41 4 21 N10G16 30.19F HARTFORD SUNNY 38 7 27 VRB7 30.21F WCI 33 DANBURY SUNNY 36 4 26 NW10G17 30.23F WCI 28 WTRBRY/OXFORD SUNNY 34 7 32 NW9 30.21F WCI 26 BRIDGEPORT SUNNY 41 6 23 NW12 30.23F MERIDEN SUNNY 39 9 29 NW7 30.21F WCI 34 NEW HAVEN SUNNY 39 6 25 N8 30.22F WCI 33 CHESTER FAIR 36 3 25 N13G20 30.20F WCI 27 GROTON SUNNY 39 10 30 N7 30.20F WCI 34 WILLIMANTIC SUNNY 37 5 26 NW5 30.20F WCI 33 IN RI CITY SKY/WX TMP DP RH WIND PRES REMARKS PROVIDENCE MOSUNNY 37 11 34 NE7G16 30.20S WCI 32 BLOCK ISLAND SUNNY 34 16 47 N7 30.20S WCI 28 WESTERLY SUNNY 36 15 42 VRB7 30.21S WCI 30 IN MA CITY SKY/WX TMP DP RH WIND PRES REMARKS BOSTON SUNNY 34 10 37 SE12 30.19F WCI 25 WORCESTER SUNNY 33 2 26 NW9 30.14F WCI 25 WESTFIELD SUNNY 40 4 22 N8G17 30.18F WCI 34 PROVINCETOWN SUNNY 36 14 41 N10 30.19F WCI 28 NANTUCKET SUNNY 38 20 48 N12G21 30.17R WCI 30 $$ ANZ330-335-338-340-345-350-353-355-291800- COASTAL MARINE OBSERVATIONS STATION/POSITION TIME SKY/WX TEMP WIND PRES VSBY WAVE AIR SEA DIR/SP/G HT/PER (UTC) (F) (DEG/KT/KT) (MB) (MI) (FT/S) NY HARB ENTRANCE 1650 34 38 300/ 8/ 10 1024.9 3/10 4S FIRE IS 1603 37 N/A 4/ 9 20S FIRE ISLAND 1550 38 1025.1 5/10 23SW MTP 1650 N/A 5/10 HUDSON CANYON NOT AVBL EXECUTION ROCKS NOT AVBL WESTERN LI SOUND NOT AVBL CENTRAL LI SOUND NOT AVBL EASTERN LI SOUND NOT AVBL ROBBINS REEF 1600 33 300/ 8/ 15 1024.4 $$ >>>>>>>>>>>>>>>>>>>>>>>>>>>> KEY <<<<<<<<<<<<<<<<<<<<<<<<<<< > < > SKY/WX - SKY CONDITION/PRESENT WEATHER < > TMP - TEMPERATURE IN FAHRENHEIT < > DP - DEWPOINT IN FAHRENHEIT < > RH - RELATIVE HUMIDITY IN PERCENT < > WIND - DIRECTION AND SPEED IN MPH < > PRES - MEAN SEA LEVEL PRESSURE IN INCHES OF HG < > WCI - WIND CHILL INDEX < > VSB - VISIBILITY IN MILES < > HX - HEAT INDEX < > TC - TEMPERATURE IN CELSIUS < > VRB - VARIABLE WIND DIRECTION < > < >>>>>>>>>>>>>>>>>>>>>>>>>>>> KEY <<<<<<<<<<<<<<<<<<<<<<<<<<<

USA.gov is the U.S. government's official web portal to all federal, state and local government web resources and services.